^^
Station Historical Data
Daily Summary for July 12, 2018 Units:  English    Metric   Both
« Previous Day
Next Day »
Daily Weekly Monthly Yearly Custom
  High: Low: Average:
Temperature: TemperatureF °F 58.5 °F 70.4 °F
Dew Point: DewpointF °F 52.2 °F 54.8 °F
Humidity: Humidity % 34 % 61 %
Wind Speed: WindSpeedMPH mph 0.0 mph 0.1 mph
Wind Gust: WindSpeedGustMPH mph - -
Wind:- - SW
Pressure: PressureIn in 30.07 in -
Precipitation: 0.00 in    
Historical Graphs
 
 
Tabular Data for July 12, 2018
Time Temperature Dew Point Pressure Wind Wind Speed Wind Gust Humidity Rainfall Rate (Hourly) solar Conditions
TemperatureF °F DewpointF °F PressureIn in Calm     Humidity % HourlyPrecipIn in SoftwareType W/m2 Conditions
00:00 60.4 °F 53.5 °F 30.07 in Calm     78 % 0.00 in WeatherDisplay:10.37 W/m2 FEW
00:05 60.3 °F 53.8 °F 30.07 in Calm     79 % 0.00 in WeatherDisplay:10.37 W/m2 FEW
00:10 60.3 °F 53.8 °F 30.07 in Calm     79 % 0.00 in WeatherDisplay:10.37 W/m2 FEW
00:15 60.3 °F 53.8 °F 30.07 in Calm     79 % 0.00 in WeatherDisplay:10.37 W/m2 FEW
00:20 60.3 °F 53.8 °F 30.07 in Calm     79 % 0.00 in WeatherDisplay:10.37 W/m2 FEW
00:25 60.3 °F 53.8 °F 30.08 in Calm     79 % 0.00 in WeatherDisplay:10.37 W/m2 FEW
00:30 60.4 °F 53.9 °F 30.08 in Calm     79 % 0.00 in WeatherDisplay:10.37 W/m2 FEW
00:35 60.4 °F 53.9 °F 30.08 in Calm     79 % 0.00 in WeatherDisplay:10.37 W/m2 FEW
00:40 60.5 °F 54.0 °F 30.07 in Calm     79 % 0.00 in WeatherDisplay:10.37 W/m2 FEW
00:45 60.6 °F 54.0 °F 30.08 in Calm     79 % 0.00 in WeatherDisplay:10.37 W/m2 FEW
00:50 60.6 °F 54.0 °F 30.08 in Calm     79 % 0.00 in WeatherDisplay:10.37 W/m2 FEW
00:55 60.7 °F 54.1 °F 30.08 in Calm     79 % 0.00 in WeatherDisplay:10.37 W/m2 FEW
01:00 60.7 °F 54.1 °F 30.08 in Calm     79 % 0.00 in WeatherDisplay:10.37 W/m2 FEW
01:05 60.7 °F 54.1 °F 30.08 in Calm     79 % 0.00 in WeatherDisplay:10.37 W/m2 FEW
01:10 60.8 °F 54.2 °F 30.08 in Calm     79 % 0.00 in WeatherDisplay:10.37 W/m2 FEW
01:15 60.8 °F 54.3 °F 30.08 in Calm     79 % 0.00 in WeatherDisplay:10.37 W/m2 FEW
01:20 60.9 °F 54.3 °F 30.08 in Calm     79 % 0.00 in WeatherDisplay:10.37 W/m2 FEW
01:25 60.9 °F 54.7 °F 30.08 in Calm     80 % 0.00 in WeatherDisplay:10.37 W/m2 FEW
01:30 61.0 °F 54.8 °F 30.08 in Calm     80 % 0.00 in WeatherDisplay:10.37 W/m2 FEW
01:35 61.0 °F 54.8 °F 30.08 in Calm     80 % 0.00 in WeatherDisplay:10.37 W/m2 FEW
01:40 61.0 °F 54.8 °F 30.08 in Calm     80 % 0.00 in WeatherDisplay:10.37 W/m2 FEW
01:45 61.1 °F 54.9 °F 30.08 in Calm     80 % 0.00 in WeatherDisplay:10.37 W/m2 FEW
01:50 61.1 °F 54.9 °F 30.08 in Calm     80 % 0.00 in WeatherDisplay:10.37 W/m2 FEW
01:55 61.2 °F 54.9 °F 30.08 in Calm     80 % 0.00 in WeatherDisplay:10.37 W/m2 FEW
02:00 61.2 °F 55.0 °F 30.08 in Calm     80 % 0.00 in WeatherDisplay:10.37 W/m2 FEW
02:05 61.2 °F 55.0 °F 30.08 in Calm     80 % 0.00 in WeatherDisplay:10.37 W/m2 FEW
02:10 61.2 °F 55.0 °F 30.08 in Calm     80 % 0.00 in WeatherDisplay:10.37 W/m2 FEW
02:15 61.2 °F 55.0 °F 30.08 in Calm     80 % 0.00 in WeatherDisplay:10.37 W/m2 FEW
02:20 61.2 °F 55.0 °F 30.08 in Calm     80 % 0.00 in WeatherDisplay:10.37 W/m2 FEW
02:25 61.2 °F 54.6 °F 30.08 in Calm     79 % 0.00 in WeatherDisplay:10.37 W/m2 FEW
02:30 61.2 °F 54.6 °F 30.08 in Calm     79 % 0.00 in WeatherDisplay:10.37 W/m2 FEW
02:35 61.1 °F 54.5 °F 30.08 in Calm     79 % 0.00 in WeatherDisplay:10.37 W/m2 FEW
02:40 61.1 °F 54.5 °F 30.08 in Calm     79 % 0.00 in WeatherDisplay:10.37 W/m2 FEW
02:45 61.0 °F 54.1 °F 30.08 in Calm     78 % 0.00 in WeatherDisplay:10.37 W/m2 FEW
02:50 60.9 °F 54.0 °F 30.08 in Calm     78 % 0.00 in WeatherDisplay:10.37 W/m2 FEW
02:55 60.8 °F 53.9 °F 30.08 in Calm     78 % 0.00 in WeatherDisplay:10.37 W/m2 FEW
03:00 60.7 °F 53.8 °F 30.08 in Calm     78 % 0.00 in WeatherDisplay:10.37 W/m2 FEW
03:05 60.6 °F 53.7 °F 30.09 in Calm     78 % 0.00 in WeatherDisplay:10.37 W/m2 FEW
03:10 60.4 °F 53.5 °F 30.09 in Calm     78 % 0.00 in WeatherDisplay:10.37 W/m2 FEW
03:15 60.3 °F 53.8 °F 30.09 in Calm     79 % 0.00 in WeatherDisplay:10.37 W/m2 FEW
03:20 60.2 °F 53.7 °F 30.09 in Calm     79 % 0.00 in WeatherDisplay:10.37 W/m2 FEW
03:25 60.1 °F 53.6 °F 30.09 in Calm     79 % 0.00 in WeatherDisplay:10.37 W/m2 FEW
03:30 59.9 °F 53.4 °F 30.09 in Calm     79 % 0.00 in WeatherDisplay:10.37 W/m2 FEW
03:35 59.8 °F 53.2 °F 30.09 in Calm     79 % 0.00 in WeatherDisplay:10.37 W/m2 FEW
03:40 59.6 °F 53.1 °F 30.09 in Calm     79 % 0.00 in WeatherDisplay:10.37 W/m2 FEW
03:45 59.5 °F 53.0 °F 30.09 in Calm     79 % 0.00 in WeatherDisplay:10.37 W/m2 FEW
03:50 59.5 °F 53.0 °F 30.09 in Calm     79 % 0.00 in WeatherDisplay:10.37 W/m2 FEW
03:55 59.5 °F 53.3 °F 30.09 in Calm     80 % 0.00 in WeatherDisplay:10.37 W/m2 FEW
04:00 59.4 °F 53.3 °F 30.09 in Calm     80 % 0.00 in WeatherDisplay:10.37 W/m2 FEW
04:05 59.4 °F 53.2 °F 30.09 in Calm     80 % 0.00 in WeatherDisplay:10.37 W/m2 FEW
04:10 59.4 °F 53.2 °F 30.09 in Calm     80 % 0.00 in WeatherDisplay:10.37 W/m2 FEW
04:15 59.4 °F 53.2 °F 30.09 in Calm     80 % 0.00 in WeatherDisplay:10.37 W/m2 FEW
04:20 59.3 °F 53.1 °F 30.09 in Calm     80 % 0.00 in WeatherDisplay:10.37 W/m2 FEW
04:25 59.2 °F 53.0 °F 30.09 in Calm     80 % 0.00 in WeatherDisplay:10.37 W/m2 FEW
04:30 59.1 °F 52.9 °F 30.09 in Calm     80 % 0.00 in WeatherDisplay:10.37 W/m2 FEW
04:35 59.0 °F 52.8 °F 30.09 in Calm     80 % 0.00 in WeatherDisplay:10.37 W/m2 FEW
04:40 58.9 °F 52.7 °F 30.09 in Calm   2.0 mph 80 % 0.00 in WeatherDisplay:10.37 W/m2 FEW
04:45 58.8 °F 52.6 °F 30.09 in Calm     80 % 0.00 in WeatherDisplay:10.37 W/m2 FEW
04:50 58.7 °F 52.9 °F 30.09 in Calm     81 % 0.00 in WeatherDisplay:10.37 W/m2 FEW
04:55 58.7 °F 52.9 °F 30.09 in Calm     81 % 0.00 in WeatherDisplay:10.37 W/m2 FEW
05:00 58.7 °F 52.8 °F 30.09 in Calm   1.0 mph 81 % 0.00 in WeatherDisplay:10.37 W/m2 FEW
05:05 58.6 °F 52.8 °F 30.10 in Calm     81 % 0.00 in WeatherDisplay:10.37 W/m2 FEW
05:10 58.6 °F 52.8 °F 30.10 in Calm     81 % 0.00 in WeatherDisplay:10.37 W/m2 FEW
05:15 58.6 °F 52.4 °F 30.10 in Calm     80 % 0.00 in WeatherDisplay:10.37 W/m2 FEW
05:20 58.6 °F 52.4 °F 30.10 in Calm     80 % 0.00 in WeatherDisplay:10.37 W/m2 FEW
05:25 58.6 °F 52.4 °F 30.10 in Calm     80 % 0.00 in WeatherDisplay:10.37 W/m2 FEW
05:30 58.5 °F 52.4 °F 30.10 in Calm     80 % 0.00 in WeatherDisplay:10.37 W/m2 FEW
05:35 58.6 °F 52.4 °F 30.10 in Calm   1.0 mph 80 % 0.00 in WeatherDisplay:10.37 W/m2 FEW
05:40 58.6 °F 52.4 °F 30.10 in Calm     80 % 0.00 in WeatherDisplay:10.37 W/m2 FEW
05:45 58.6 °F 52.4 °F 30.10 in Calm   2.0 mph 80 % 0.00 in WeatherDisplay:10.37 W/m2 FEW
05:50 58.7 °F 52.2 °F 30.11 in Calm   2.0 mph 79 % 0.00 in WeatherDisplay:10.37 W/m2 FEW
05:55 58.8 °F 52.3 °F 30.11 in Calm   1.0 mph 79 % 0.00 in WeatherDisplay:10.37 W/m2 FEW
06:00 58.8 °F 52.3 °F 30.11 in Calm     79 % 0.00 in WeatherDisplay:10.37 W/m2 FEW
06:05 58.9 °F 52.4 °F 30.11 in Calm   1.0 mph 79 % 0.00 in WeatherDisplay:10.37 W/m2 FEW
06:10 58.9 °F 52.4 °F 30.11 in Calm     79 % 0.00 in WeatherDisplay:10.37 W/m2 FEW
06:15 59.0 °F 52.5 °F 30.11 in Calm   1.0 mph 79 % 0.00 in WeatherDisplay:10.37 W/m2 FEW
06:20 59.1 °F 52.6 °F 30.11 in Calm   2.0 mph 79 % 0.00 in WeatherDisplay:10.37 W/m2 FEW
06:25 59.1 °F 52.6 °F 30.11 in Calm   1.0 mph 79 % 0.00 in WeatherDisplay:10.37 W/m2 FEW
06:30 59.2 °F 52.7 °F 30.12 in Calm   2.0 mph 79 % 0.00 in WeatherDisplay:10.37 W/m2 FEW
06:35 59.2 °F 52.7 °F 30.12 in Calm     79 % 0.00 in WeatherDisplay:10.37 W/m2 FEW
06:40 59.3 °F 52.8 °F 30.12 in Calm   2.0 mph 79 % 0.00 in WeatherDisplay:10.37 W/m2 FEW
06:45 59.4 °F 52.9 °F 30.12 in Calm   2.0 mph 79 % 0.00 in WeatherDisplay:10.37 W/m2 FEW
06:50 59.4 °F 52.6 °F 30.12 in Calm   1.0 mph 78 % 0.00 in WeatherDisplay:10.37 W/m2 FEW
06:55 59.5 °F 52.6 °F 30.13 in Calm     78 % 0.00 in WeatherDisplay:10.37 W/m2 FEW
07:00 59.6 °F 52.7 °F 30.13 in Calm     78 % 0.00 in WeatherDisplay:10.37 W/m2 FEW
07:05 59.7 °F 52.8 °F 30.13 in Calm     78 % 0.00 in WeatherDisplay:10.37 W/m2 FEW
07:10 59.9 °F 53.0 °F 30.13 in Calm     78 % 0.00 in WeatherDisplay:10.37 W/m2 FEW
07:15 60.0 °F 53.1 °F 30.13 in Calm     78 % 0.00 in WeatherDisplay:10.37 W/m2 FEW
07:20 60.1 °F 52.9 °F 30.13 in Calm     77 % 0.00 in WeatherDisplay:10.37 W/m2 FEW
07:25 60.3 °F 53.0 °F 30.14 in Calm     77 % 0.00 in WeatherDisplay:10.37 W/m2 FEW
07:30 60.4 °F 53.2 °F 30.13 in Calm     77 % 0.00 in WeatherDisplay:10.37 W/m2 FEW
07:35 60.7 °F 53.1 °F 30.13 in Calm     76 % 0.00 in WeatherDisplay:10.37 W/m2 FEW
07:40 60.9 °F 52.9 °F 30.14 in Calm     75 % 0.00 in WeatherDisplay:10.37 W/m2 FEW
07:45 61.2 °F 53.2 °F 30.13 in Calm   1.0 mph 75 % 0.00 in WeatherDisplay:10.37 W/m2 FEW
07:50 61.6 °F 53.2 °F 30.14 in Calm     74 % 0.00 in WeatherDisplay:10.37 W/m2 FEW
07:55 61.9 °F 53.6 °F 30.14 in Calm     74 % 0.00 in WeatherDisplay:10.37 W/m2 FEW
08:00 62.4 °F 54.4 °F 30.14 in Calm   1.0 mph 75 % 0.00 in WeatherDisplay:10.37 W/m2 FEW
08:05 62.9 °F 54.5 °F 30.14 in Calm   1.0 mph 74 % 0.00 in WeatherDisplay:10.37 W/m2 FEW
08:10 63.3 °F 54.1 °F 30.14 in Calm   2.0 mph 72 % 0.00 in WeatherDisplay:10.37 W/m2 FEW
08:15 63.6 °F 54.1 °F 30.14 in Calm   1.0 mph 71 % 0.00 in WeatherDisplay:10.37 W/m2 FEW
08:20 64.1 °F 54.5 °F 30.14 in Calm   1.0 mph 71 % 0.00 in WeatherDisplay:10.37 W/m2 FEW
08:25 64.4 °F 54.4 °F 30.14 in Calm     70 % 0.00 in WeatherDisplay:10.37 W/m2 FEW
08:30 64.7 °F 54.3 °F 30.14 in Calm   1.0 mph 69 % 0.00 in WeatherDisplay:10.37 W/m2 FEW
08:35 64.9 °F 54.5 °F 30.14 in Calm   1.0 mph 69 % 0.00 in WeatherDisplay:10.37 W/m2 FEW
08:40 65.3 °F 55.3 °F 30.14 in Calm     70 % 0.00 in WeatherDisplay:10.37 W/m2 FEW
08:45 65.5 °F 54.7 °F 30.15 in Calm   1.0 mph 68 % 0.00 in WeatherDisplay:10.37 W/m2 FEW
08:50 65.8 °F 55.0 °F 30.15 in Calm     68 % 0.00 in WeatherDisplay:10.37 W/m2 FEW
08:55 66.1 °F 54.8 °F 30.15 in Calm   2.0 mph 67 % 0.00 in WeatherDisplay:10.37 W/m2 FEW
09:00 66.5 °F 54.8 °F 30.15 in Calm   2.0 mph 66 % 0.00 in WeatherDisplay:10.37 W/m2 FEW
09:05 66.7 °F 55.0 °F 30.16 in Calm   2.0 mph 66 % 0.00 in WeatherDisplay:10.37 W/m2 FEW
09:10 66.9 °F 55.1 °F 30.16 in Calm   5.0 mph 66 % 0.00 in WeatherDisplay:10.37 W/m2 FEW
09:15 67.1 °F 55.4 °F 30.16 in Calm     66 % 0.00 in WeatherDisplay:10.37 W/m2 FEW
09:20 67.3 °F 55.1 °F 30.16 in Calm     65 % 0.00 in WeatherDisplay:10.37 W/m2 FEW
09:25 67.5 °F 55.3 °F 30.15 in Calm     65 % 0.00 in WeatherDisplay:10.37 W/m2 FEW
09:30 67.7 °F 55.5 °F 30.16 in Calm     65 % 0.00 in WeatherDisplay:10.37 W/m2 FEW
09:35 68.0 °F 55.8 °F 30.16 in Calm   5.0 mph 65 % 0.00 in WeatherDisplay:10.37 W/m2 FEW
09:40 68.3 °F 55.2 °F 30.16 in Calm   2.0 mph 63 % 0.00 in WeatherDisplay:10.37 W/m2 FEW
09:45 68.7 °F 55.6 °F 30.16 in NNW 1.0 mph 4.0 mph 63 % 0.00 in WeatherDisplay:10.37 W/m2 FEW
09:50 69.0 °F 55.5 °F 30.16 in Calm   5.0 mph 62 % 0.00 in WeatherDisplay:10.37 W/m2 FEW
09:55 69.5 °F 55.9 °F 30.16 in Calm     62 % 0.00 in WeatherDisplay:10.37 W/m2 FEW
10:00 70.0 °F 56.0 °F 30.16 in Calm   2.0 mph 61 % 0.00 in WeatherDisplay:10.37 W/m2 FEW
10:05 70.4 °F 55.9 °F 30.16 in Calm   2.0 mph 60 % 0.00 in WeatherDisplay:10.37 W/m2 FEW
10:10 70.9 °F 56.3 °F 30.16 in Calm   3.0 mph 60 % 0.00 in WeatherDisplay:10.37 W/m2 FEW
10:15 71.3 °F 55.3 °F 30.16 in Calm   3.0 mph 57 % 0.00 in WeatherDisplay:10.37 W/m2 FEW
10:20 71.8 °F 56.7 °F 30.16 in Calm   4.0 mph 59 % 0.00 in WeatherDisplay:10.37 W/m2 FEW
10:25 72.3 °F 56.7 °F 30.16 in North 1.0 mph 5.0 mph 58 % 0.00 in WeatherDisplay:10.37 W/m2 FEW
10:30 72.6 °F 56.0 °F 30.16 in Calm   5.0 mph 56 % 0.00 in WeatherDisplay:10.37 W/m2 FEW
10:35 73.0 °F 56.4 °F 30.16 in Calm   1.0 mph 56 % 0.00 in WeatherDisplay:10.37 W/m2 FEW
10:40 73.4 °F 55.8 °F 30.16 in Calm   2.0 mph 54 % 0.00 in WeatherDisplay:10.37 W/m2 FEW
10:45 73.8 °F 55.6 °F 30.17 in North 1.0 mph 5.0 mph 53 % 0.00 in WeatherDisplay:10.37 W/m2 FEW
10:50 74.1 °F 55.9 °F 30.17 in Calm   1.0 mph 53 % 0.00 in WeatherDisplay:10.37 W/m2 FEW
10:55 74.5 °F 56.7 °F 30.17 in Calm   3.0 mph 54 % 0.00 in WeatherDisplay:10.37 W/m2 FEW
11:00 74.8 °F 56.0 °F 30.17 in Calm   4.0 mph 52 % 0.00 in WeatherDisplay:10.37 W/m2 FEW
11:05 75.1 °F 57.3 °F 30.16 in Calm     54 % 0.00 in WeatherDisplay:10.37 W/m2 FEW
11:10 75.4 °F 55.5 °F 30.17 in Calm   2.0 mph 50 % 0.00 in WeatherDisplay:10.37 W/m2 FEW
11:15 75.8 °F 57.4 °F 30.17 in Calm   2.0 mph 53 % 0.00 in WeatherDisplay:10.37 W/m2 FEW
11:20 76.2 °F 55.6 °F 30.17 in Calm   2.0 mph 49 % 0.00 in WeatherDisplay:10.37 W/m2 FEW
11:25 76.4 °F 56.4 °F 30.17 in Calm     50 % 0.00 in WeatherDisplay:10.37 W/m2 FEW
11:30 76.7 °F 56.1 °F 30.17 in Calm   3.0 mph 49 % 0.00 in WeatherDisplay:10.37 W/m2 FEW
11:35 76.9 °F 55.7 °F 30.17 in Calm   6.0 mph 48 % 0.00 in WeatherDisplay:10.37 W/m2 FEW
11:40 77.3 °F 56.7 °F 30.17 in Calm   2.0 mph 49 % 0.00 in WeatherDisplay:10.37 W/m2 FEW
11:45 77.7 °F 55.9 °F 30.17 in Calm   1.0 mph 47 % 0.00 in WeatherDisplay:10.37 W/m2 FEW
11:50 77.9 °F 55.5 °F 30.17 in NNE 1.0 mph 7.0 mph 46 % 0.00 in WeatherDisplay:10.37 W/m2 FEW
11:55 78.1 °F 56.8 °F 30.17 in Calm   3.0 mph 48 % 0.00 in WeatherDisplay:10.37 W/m2 FEW
12:00 78.3 °F 55.8 °F 30.17 in Calm     46 % 0.00 in WeatherDisplay:10.37 W/m2 FEW
12:05 78.6 °F 55.5 °F 30.17 in Calm   6.0 mph 45 % 0.00 in WeatherDisplay:10.37 W/m2 FEW
12:10 78.7 °F 54.3 °F 30.16 in Calm   4.0 mph 43 % 0.00 in WeatherDisplay:10.37 W/m2 FEW
12:15 78.8 °F 54.4 °F 30.16 in Calm   2.0 mph 43 % 0.00 in WeatherDisplay:10.37 W/m2 FEW
12:20 78.9 °F 55.1 °F 30.16 in Calm     44 % 0.00 in WeatherDisplay:10.37 W/m2 FEW
12:25 79.1 °F 54.7 °F 30.16 in Calm   6.0 mph 43 % 0.00 in WeatherDisplay:10.37 W/m2 FEW
12:30 79.2 °F 53.5 °F 30.16 in North 2.0 mph 6.0 mph 41 % 0.00 in WeatherDisplay:10.37 W/m2 FEW
12:35 79.2 °F 54.1 °F 30.16 in Calm   3.0 mph 42 % 0.00 in WeatherDisplay:10.37 W/m2 FEW
12:40 79.2 °F 54.8 °F 30.15 in NNW 2.0 mph 5.0 mph 43 % 0.00 in WeatherDisplay:10.37 W/m2 FEW
12:45 79.2 °F 54.8 °F 30.16 in Calm   4.0 mph 43 % 0.00 in WeatherDisplay:10.37 W/m2 FEW
12:50 79.5 °F 55.0 °F 30.16 in Calm   2.0 mph 43 % 0.00 in WeatherDisplay:10.37 W/m2 FEW
12:55 79.7 °F 55.2 °F 30.16 in North 1.0 mph 5.0 mph 43 % 0.00 in WeatherDisplay:10.37 W/m2 FEW
13:00 79.9 °F 54.7 °F 30.16 in Calm   7.0 mph 42 % 0.00 in WeatherDisplay:10.37 W/m2 FEW
13:05 79.9 °F 54.1 °F 30.16 in Calm   5.0 mph 41 % 0.00 in WeatherDisplay:10.37 W/m2 FEW
13:10 80.0 °F 54.8 °F 30.16 in Calm   3.0 mph 42 % 0.00 in WeatherDisplay:10.37 W/m2 FEW
13:15 80.1 °F 53.6 °F 30.16 in Calm   5.0 mph 40 % 0.00 in WeatherDisplay:10.37 W/m2 FEW
13:20 80.2 °F 53.7 °F 30.16 in Calm   1.0 mph 40 % 0.00 in WeatherDisplay:10.37 W/m2 FEW
13:25 80.3 °F 54.5 °F 30.16 in Calm     41 % 0.00 in WeatherDisplay:10.37 W/m2 FEW
13:30 80.5 °F 55.3 °F 30.16 in Calm   1.0 mph 42 % 0.00 in WeatherDisplay:10.37 W/m2 FEW
13:35 80.6 °F 54.0 °F 30.15 in Calm   1.0 mph 40 % 0.00 in WeatherDisplay:10.37 W/m2 FEW
13:40 80.8 °F 54.9 °F 30.15 in Calm   1.0 mph 41 % 0.00 in WeatherDisplay:10.37 W/m2 FEW
13:45 80.8 °F 52.8 °F 30.15 in North 2.0 mph 6.0 mph 38 % 0.00 in WeatherDisplay:10.37 W/m2 FEW
13:50 80.8 °F 54.9 °F 30.15 in Calm   1.0 mph 41 % 0.00 in WeatherDisplay:10.37 W/m2 FEW
13:55 81.1 °F 53.8 °F 30.15 in Calm   2.0 mph 39 % 0.00 in WeatherDisplay:10.37 W/m2 FEW
14:00 81.3 °F 54.7 °F 30.15 in Calm   1.0 mph 40 % 0.00 in WeatherDisplay:10.37 W/m2 FEW
14:05 81.5 °F 54.8 °F 30.15 in Calm   1.0 mph 40 % 0.00 in WeatherDisplay:10.37 W/m2 FEW
14:10 81.8 °F 55.1 °F 30.15 in Calm   3.0 mph 40 % 0.00 in WeatherDisplay:10.37 W/m2 FEW
14:15 82.0 °F 54.6 °F 30.15 in Calm   2.0 mph 39 % 0.00 in WeatherDisplay:10.37 W/m2 FEW
14:20 82.2 °F 53.3 °F 30.15 in NE 1.0 mph 6.0 mph 37 % 0.00 in WeatherDisplay:10.37 W/m2 FEW
14:25 82.4 °F 53.5 °F 30.15 in Calm   3.0 mph 37 % 0.00 in WeatherDisplay:10.37 W/m2 FEW
14:30 82.6 °F 53.7 °F 30.14 in Calm   3.0 mph 37 % 0.00 in WeatherDisplay:10.37 W/m2 FEW
14:35 82.7 °F 53.7 °F 30.14 in Calm   3.0 mph 37 % 0.00 in WeatherDisplay:10.37 W/m2 FEW
14:40 82.8 °F 53.1 °F 30.14 in NNW 3.0 mph 6.0 mph 36 % 0.00 in WeatherDisplay:10.37 W/m2 FEW
14:45 83.0 °F 55.5 °F 30.14 in Calm   4.0 mph 39 % 0.00 in WeatherDisplay:10.37 W/m2 FEW
14:50 83.4 °F 55.1 °F 30.14 in Calm   1.0 mph 38 % 0.00 in WeatherDisplay:10.37 W/m2 FEW
14:55 83.6 °F 54.6 °F 30.14 in Calm   2.0 mph 37 % 0.00 in WeatherDisplay:10.37 W/m2 FEW
15:00 83.8 °F 55.5 °F 30.13 in Calm   2.0 mph 38 % 0.00 in WeatherDisplay:10.37 W/m2 FEW
15:05 84.0 °F 56.4 °F 30.13 in Calm   2.0 mph 39 % 0.00 in WeatherDisplay:10.37 W/m2 FEW
15:10 84.1 °F 55.0 °F 30.13 in Calm   2.0 mph 37 % 0.00 in WeatherDisplay:10.37 W/m2 FEW
15:15 84.1 °F 55.1 °F 30.13 in Calm   1.0 mph 37 % 0.00 in WeatherDisplay:10.37 W/m2 FEW
15:20 84.2 °F 55.8 °F 30.13 in Calm     38 % 0.00 in WeatherDisplay:10.37 W/m2 FEW
15:25 84.1 °F 55.0 °F 30.13 in Calm     37 % 0.00 in WeatherDisplay:10.37 W/m2 FEW
15:30 84.1 °F 54.3 °F 30.13 in Calm   1.0 mph 36 % 0.00 in WeatherDisplay:10.37 W/m2 FEW
15:35 84.0 °F 54.9 °F 30.13 in Calm     37 % 0.00 in WeatherDisplay:10.37 W/m2 FEW
15:40 83.8 °F 54.0 °F 30.13 in Calm   1.0 mph 36 % 0.00 in WeatherDisplay:10.37 W/m2 FEW
15:45 83.8 °F 56.2 °F 30.13 in Calm     39 % 0.00 in WeatherDisplay:10.37 W/m2 FEW
15:50 83.8 °F 54.7 °F 30.13 in Calm   2.0 mph 37 % 0.00 in WeatherDisplay:10.37 W/m2 FEW
15:55 83.8 °F 54.0 °F 30.12 in Calm   1.0 mph 36 % 0.00 in WeatherDisplay:10.37 W/m2 FEW
16:00 83.8 °F 54.7 °F 30.12 in Calm     37 % 0.00 in WeatherDisplay:10.37 W/m2 FEW
16:05 83.8 °F 53.2 °F 30.12 in Calm   2.0 mph 35 % 0.00 in WeatherDisplay:10.37 W/m2 FEW
16:10 83.8 °F 53.2 °F 30.12 in Calm   2.0 mph 35 % 0.00 in WeatherDisplay:10.37 W/m2 FEW
16:15 83.7 °F 53.9 °F 30.12 in Calm   1.0 mph 36 % 0.00 in WeatherDisplay:10.37 W/m2 FEW
16:20 83.7 °F 53.1 °F 30.12 in Calm     35 % 0.00 in WeatherDisplay:10.37 W/m2 FEW
16:25 83.8 °F 53.2 °F 30.12 in Calm     35 % 0.00 in WeatherDisplay:10.37 W/m2 FEW
16:35 83.8 °F 55.5 °F 30.12 in Calm     38 % 0.00 in WeatherDisplay:10.37 W/m2 FEW
16:45 83.7 °F 54.7 °F 30.12 in Calm   1.0 mph 37 % 0.00 in WeatherDisplay:10.37 W/m2 FEW
16:50 83.7 °F 53.1 °F 30.11 in Calm   1.0 mph 35 % 0.00 in WeatherDisplay:10.37 W/m2 FEW
16:55 83.6 °F 52.3 °F 30.12 in Calm   1.0 mph 34 % 0.00 in WeatherDisplay:10.37 W/m2 FEW
17:00 83.6 °F 54.6 °F 30.11 in Calm   2.0 mph 37 % 0.00 in WeatherDisplay:10.37 W/m2 FEW
17:05 83.7 °F 54.7 °F 30.11 in Calm     37 % 0.00 in WeatherDisplay:10.37 W/m2 FEW
17:10 83.7 °F 53.9 °F 30.11 in Calm   1.0 mph 36 % 0.00 in WeatherDisplay:10.37 W/m2 FEW
17:15 83.7 °F 53.9 °F 30.11 in Calm   1.0 mph 36 % 0.00 in WeatherDisplay:10.37 W/m2 FEW
17:20 83.8 °F 53.2 °F 30.12 in Calm     35 % 0.00 in WeatherDisplay:10.37 W/m2 FEW
17:25 83.8 °F 54.0 °F 30.11 in Calm     36 % 0.00 in WeatherDisplay:10.37 W/m2 FEW
17:30 83.8 °F 52.4 °F 30.11 in Calm   1.0 mph 34 % 0.00 in WeatherDisplay:10.37 W/m2 FEW
17:35 83.9 °F 53.3 °F 30.11 in Calm     35 % 0.00 in WeatherDisplay:10.37 W/m2 FEW
17:40 84.1 °F 54.3 °F 30.11 in Calm     36 % 0.00 in WeatherDisplay:10.37 W/m2 FEW
17:45 84.2 °F 54.4 °F 30.11 in Calm     36 % 0.00 in WeatherDisplay:10.37 W/m2 FEW
17:50 84.3 °F 53.7 °F 30.11 in Calm     35 % 0.00 in WeatherDisplay:10.37 W/m2 FEW
17:55 84.4 °F 53.8 °F 30.12 in Calm   3.0 mph 35 % 0.00 in WeatherDisplay:10.37 W/m2 FEW
18:00 84.3 °F 55.2 °F 30.12 in Calm   2.0 mph 37 % 0.00 in WeatherDisplay:10.37 W/m2 FEW
18:05 84.0 °F 54.9 °F 30.12 in Calm   1.0 mph 37 % 0.00 in WeatherDisplay:10.37 W/m2 FEW
18:10 83.7 °F 54.6 °F 30.12 in Calm     37 % 0.00 in WeatherDisplay:10.37 W/m2 FEW
18:15 83.4 °F 55.1 °F 30.12 in Calm     38 % 0.00 in WeatherDisplay:10.37 W/m2 FEW
18:20 83.1 °F 54.9 °F 30.12 in Calm     38 % 0.00 in WeatherDisplay:10.37 W/m2 FEW
18:25 82.8 °F 54.6 °F 30.12 in Calm     38 % 0.00 in WeatherDisplay:10.37 W/m2 FEW
18:30 82.4 °F 54.3 °F 30.12 in Calm   1.0 mph 38 % 0.00 in WeatherDisplay:10.37 W/m2 FEW
18:35 82.2 °F 55.5 °F 30.12 in Calm   2.0 mph 40 % 0.00 in WeatherDisplay:10.37 W/m2 FEW
18:40 82.0 °F 55.3 °F 30.12 in Calm   1.0 mph 40 % 0.00 in WeatherDisplay:10.37 W/m2 FEW
18:45 81.9 °F 55.2 °F 30.13 in Calm     40 % 0.00 in WeatherDisplay:10.37 W/m2 FEW
18:50 81.8 °F 55.8 °F 30.13 in Calm     41 % 0.00 in WeatherDisplay:10.37 W/m2 FEW
18:55 81.7 °F 55.7 °F 30.13 in Calm     41 % 0.00 in WeatherDisplay:10.37 W/m2 FEW
19:00 81.6 °F 54.9 °F 30.13 in Calm     40 % 0.00 in WeatherDisplay:10.37 W/m2 FEW
19:05 81.5 °F 55.5 °F 30.13 in Calm     41 % 0.00 in WeatherDisplay:10.37 W/m2 FEW
19:10 81.3 °F 56.0 °F 30.14 in Calm   3.0 mph 42 % 0.00 in WeatherDisplay:10.37 W/m2 FEW
19:15 81.0 °F 57.0 °F 30.14 in Calm   1.0 mph 44 % 0.00 in WeatherDisplay:10.37 W/m2 FEW
19:20 80.9 °F 56.9 °F 30.14 in Calm     44 % 0.00 in WeatherDisplay:10.37 W/m2 FEW
19:25 80.7 °F 57.4 °F 30.14 in Calm   2.0 mph 45 % 0.00 in WeatherDisplay:10.37 W/m2 FEW
19:30 80.5 °F 57.8 °F 30.14 in Calm   1.0 mph 46 % 0.00 in WeatherDisplay:10.37 W/m2 FEW
19:35 80.2 °F 57.6 °F 30.14 in Calm   1.0 mph 46 % 0.00 in WeatherDisplay:10.37 W/m2 FEW
19:40 80.0 °F 57.4 °F 30.14 in Calm   1.0 mph 46 % 0.00 in WeatherDisplay:10.37 W/m2 FEW
19:45 79.9 °F 57.3 °F 30.14 in Calm     46 % 0.00 in WeatherDisplay:10.37 W/m2 FEW
19:50 79.8 °F 57.8 °F 30.14 in Calm     47 % 0.00 in WeatherDisplay:10.37 W/m2 FEW
19:55 79.6 °F 58.2 °F 30.14 in Calm     48 % 0.00 in WeatherDisplay:10.37 W/m2 FEW
20:00 79.3 °F 57.4 °F 30.15 in Calm     47 % 0.00 in WeatherDisplay:10.37 W/m2 FEW
20:05 79.1 °F 57.7 °F 30.15 in Calm     48 % 0.00 in WeatherDisplay:10.37 W/m2 FEW
20:10 78.9 °F 57.5 °F 30.15 in Calm     48 % 0.00 in WeatherDisplay:10.37 W/m2 FEW
20:15 78.5 °F 57.8 °F 30.15 in Calm     49 % 0.00 in WeatherDisplay:10.37 W/m2 FEW
20:20 78.0 °F 59.0 °F 30.15 in Calm     52 % 0.00 in WeatherDisplay:10.37 W/m2 FEW
20:25 77.5 °F 58.5 °F 30.15 in Calm     52 % 0.00 in WeatherDisplay:10.37 W/m2 FEW
20:30 76.9 °F 58.5 °F 30.15 in Calm     53 % 0.00 in WeatherDisplay:10.37 W/m2 FEW
20:35 76.3 °F 58.5 °F 30.15 in Calm     54 % 0.00 in WeatherDisplay:10.37 W/m2 FEW
20:40 75.7 °F 58.4 °F 30.15 in Calm     55 % 0.00 in WeatherDisplay:10.37 W/m2 FEW
20:45 75.1 °F 58.4 °F 30.15 in Calm     56 % 0.00 in WeatherDisplay:10.37 W/m2 FEW
20:50 74.5 °F 58.3 °F 30.15 in Calm     57 % 0.00 in WeatherDisplay:10.37 W/m2 FEW
20:55 74.0 °F 58.8 °F 30.15 in Calm     59 % 0.00 in WeatherDisplay:10.37 W/m2 FEW
21:00 73.5 °F 58.8 °F 30.15 in Calm     60 % 0.00 in WeatherDisplay:10.37 W/m2 FEW
21:05 73.1 °F 58.4 °F 30.15 in Calm     60 % 0.00 in WeatherDisplay:10.37 W/m2 FEW
21:10 72.7 °F 58.5 °F 30.15 in Calm     61 % 0.00 in WeatherDisplay:10.37 W/m2 FEW
21:15 72.2 °F 58.4 °F 30.16 in Calm     62 % 0.00 in WeatherDisplay:10.37 W/m2 FEW
21:20 71.6 °F 58.4 °F 30.16 in Calm     63 % 0.00 in WeatherDisplay:10.37 W/m2 FEW
21:25 71.0 °F 58.2 °F 30.16 in Calm     64 % 0.00 in WeatherDisplay:10.37 W/m2 FEW
21:30 70.5 °F 58.2 °F 30.16 in Calm     65 % 0.00 in WeatherDisplay:10.37 W/m2 FEW
21:35 70.3 °F 57.9 °F 30.16 in Calm     65 % 0.00 in WeatherDisplay:10.37 W/m2 FEW
21:40 70.0 °F 57.7 °F 30.16 in Calm     65 % 0.00 in WeatherDisplay:10.37 W/m2 FEW
21:45 69.6 °F 58.1 °F 30.16 in Calm     67 % 0.00 in WeatherDisplay:10.37 W/m2 FEW
21:50 69.3 °F 57.9 °F 30.17 in Calm     67 % 0.00 in WeatherDisplay:10.37 W/m2 FEW
21:55 69.0 °F 58.4 °F 30.16 in Calm     69 % 0.00 in WeatherDisplay:10.37 W/m2 FEW
22:00 68.6 °F 58.5 °F 30.17 in Calm     70 % 0.00 in WeatherDisplay:10.37 W/m2 FEW
22:05 68.4 °F 58.2 °F 30.17 in Calm     70 % 0.00 in WeatherDisplay:10.37 W/m2 FEW
22:10 68.2 °F 58.0 °F 30.17 in Calm     70 % 0.00 in WeatherDisplay:10.37 W/m2 FEW
22:15 67.9 °F 58.1 °F 30.17 in Calm     71 % 0.00 in WeatherDisplay:10.37 W/m2 FEW
22:20 67.6 °F 58.3 °F 30.17 in Calm     72 % 0.00 in WeatherDisplay:10.37 W/m2 FEW
22:25 67.3 °F 58.3 °F 30.17 in Calm     73 % 0.00 in WeatherDisplay:10.37 W/m2 FEW
22:30 67.0 °F 58.4 °F 30.17 in Calm     74 % 0.00 in WeatherDisplay:10.37 W/m2 FEW
22:35 66.8 °F 58.2 °F 30.17 in Calm     74 % 0.00 in WeatherDisplay:10.37 W/m2 FEW
22:40 66.5 °F 58.0 °F 30.17 in Calm     74 % 0.00 in WeatherDisplay:10.37 W/m2 FEW
22:45 66.3 °F 58.1 °F 30.17 in Calm     75 % 0.00 in WeatherDisplay:10.37 W/m2 FEW
22:50 66.1 °F 58.3 °F 30.18 in Calm     76 % 0.00 in WeatherDisplay:10.37 W/m2 FEW
22:55 65.8 °F 58.0 °F 30.18 in Calm     76 % 0.00 in WeatherDisplay:10.37 W/m2 FEW
23:00 65.6 °F 57.8 °F 30.18 in Calm     76 % 0.00 in WeatherDisplay:10.37 W/m2 FEW
23:05 65.3 °F 57.9 °F 30.18 in Calm     77 % 0.00 in WeatherDisplay:10.37 W/m2 FEW
23:10 65.1 °F 58.1 °F 30.18 in Calm     78 % 0.00 in WeatherDisplay:10.37 W/m2 FEW
23:15 64.9 °F 58.2 °F 30.17 in Calm     79 % 0.00 in WeatherDisplay:10.37 W/m2 FEW
23:20 64.7 °F 58.0 °F 30.17 in Calm     79 % 0.00 in WeatherDisplay:10.37 W/m2 FEW
23:25 64.5 °F 57.8 °F 30.17 in Calm     79 % 0.00 in WeatherDisplay:10.37 W/m2 FEW
23:30 64.3 °F 57.6 °F 30.17 in Calm     79 % 0.00 in WeatherDisplay:10.37 W/m2 FEW
23:35 64.1 °F 57.5 °F 30.17 in Calm     79 % 0.00 in WeatherDisplay:10.37 W/m2 FEW
23:40 63.9 °F 57.6 °F 30.17 in Calm     80 % 0.00 in WeatherDisplay:10.37 W/m2 FEW
23:45 63.7 °F 57.4 °F 30.17 in Calm     80 % 0.00 in WeatherDisplay:10.37 W/m2 FEW
23:50 63.5 °F 57.2 °F 30.17 in Calm     80 % 0.00 in WeatherDisplay:10.37 W/m2 FEW
23:55 63.3 °F 57.1 °F 30.17 in Calm     80 % 0.00 in WeatherDisplay:10.37 W/m2 FEW
Juneau County Weather
Compliments of Weather Underground - 3 mb